Home > Weather > Arequipa > Past weeks

Flag for Peru Past Weather in Arequipa, Arequipa, Peru — Yesterday and Last 2 Weeks

Now
55 °F

Clear.


Feels Like: 55 °F
Forecast: 47 / 73 °F
Wind: 5 mph from Northeast

Location: Arequipa Airport

Current Time: Aug 24, 2016 at 10:02:53 PM

Latest Report: Aug 24, 2016 at 9:00 PM


Visibility: 10 mi

Pressure: 30.36 "Hg (22.94 "Hg at 2345m altitude)

Humidity: 33%

Dew Point: 27 °F

Location of ArequipaLocation

Past Weather in Arequipa — Graph

°F

Arequipa Temperature Yesterday

Maximum temperature yesterday: 72 °F (at 10:00 AM)
Minimum temperature yesterday: 54 °F (at 6:00 AM)
Average temperature yesterday: 62 °F

High & Low Weather Summary for the Past Weeks

 TemperatureHumidityPressure
High75 °F (Aug 15, 11:00 AM)39% (Aug 18, 6:00 PM)30.42 "Hg (Aug 18, 6:00 PM)
Low45 °F (Aug 12, 4:00 AM)6% (Aug 15, 10:00 AM)30.01 "Hg (Aug 19, 6:00 PM)
Average59 °F19%30.31 "Hg
* Reported Aug 9 9:00 PM — Aug 24 9:00 PM, Arequipa, Weather by CustomWeather, © 2016

Note: Actual official high and low records may vary slightly from our data, if they occured in-between our weather recording intervals... More about our weather records

Advertising

Arequipa Weather History for the Previous 24 Hours

Scroll right to see more
 ConditionsComfort  
Time TempWeatherWind HumidityBarometerVisibility
9:00 PM
Wed, Aug 24
55 °FClear.5 mph33%30.36 "Hg10 mi
8:00 PM55 °FClear.2 mph38%30.33 "Hg10 mi
7:00 PM57 °FClear.2 mph33%30.33 "Hg10 mi
6:00 PM59 °FClear.9 mph31%30.33 "Hg10 mi
5:00 PM63 °FSunny.9 mph24%30.30 "Hg10 mi
4:00 PM64 °FPassing clouds.9 mph22%30.30 "HgN/A
3:00 PM68 °FPassing clouds.12 mph20%30.30 "HgN/A
2:00 PM68 °FPassing clouds.13 mph20%30.30 "HgN/A
1:00 PM68 °FPassing clouds.10 mph17%30.33 "HgN/A
12:00 PM70 °FPassing clouds.12 mph15%30.33 "HgN/A
11:00 AM68 °FPassing clouds.9 mph18%30.36 "HgN/A
10:00 AM66 °FPassing clouds.8 mph21%30.39 "HgN/A
9:00 AM66 °FSunny.5 mph21%30.36 "Hg10 mi
8:00 AM63 °FPassing clouds.5 mph24%30.36 "HgN/A
7:00 AM54 °FSunny.7 mph30%30.36 "Hg10 mi
6:00 AM54 °FSunny.7 mph30%30.36 "Hg10 mi
5:00 AM54 °FClear.6 mph30%30.33 "Hg10 mi
4:00 AM54 °FPassing clouds.8 mph30%30.33 "HgN/A
3:00 AM54 °FClear.6 mph30%30.33 "Hg10 mi
2:00 AM54 °FClear.6 mph30%30.36 "Hg10 mi
1:00 AM55 °FClear.7 mph28%30.36 "Hg10 mi
12:00 AM54 °FClear.5 mph30%30.36 "Hg10 mi
11:00 PM
Tue, Aug 23
55 °FClear.2 mph31%30.36 "Hg10 mi
10:00 PM55 °FClear.6 mph33%30.39 "Hg10 mi
Weather by CustomWeather, © 2016

See weather overviewHow to use our weather pages